GW1714 Weather Reports


time (UTC)temp
C
wind
direction
speed
KPH
gust
KPH
rain 1hr
cm
rain 24hr
cm
rain mn
cm
humidity
%
barometer
mb
20260504000157 16 0 3.2 4.8 0.00 0.00 0.00 46 1034.3
20260503235655 16 12 3.2 4.8 0.00 0.00 0.00 45 1034.4
20260503235151 16 20 4.8 6.4 0.00 0.00 0.00 45 1034.3
20260503234649 16 21 4.8 8.0 0.00 0.00 0.00 43 1034.4
20260503234148 16 36 4.8 6.4 0.00 0.00 0.00 43 1034.4
20260503233644 16 12 3.2 8.0 0.00 0.00 0.00 43 1034.6
20260503233139 16 35 8.0 8.0 0.00 0.00 0.00 42 1034.5
20260503232637 16 40 4.8 8.0 0.00 0.00 0.00 42 1034.5
20260503232134 17 65 3.2 8.0 0.00 0.00 0.00 42 1034.6
20260503231632 17 43 6.4 6.4 0.00 0.00 0.00 40 1034.7
20260503231128 17 0 3.2 6.4 0.00 0.00 0.00 40 1034.9
20260503230625 17 99 0.0 6.4 0.00 0.00 0.00 38 1034.6
20260503230122 18 81 0.0 6.4 0.00 0.00 0.00 38 1035.0
20260503225620 19 24 3.2 6.4 0.00 0.00 0.00 36 1034.8
20260503225119 19 16 3.2 4.8 0.00 0.00 0.00 39 1034.9
20260503224617 19 0 0.0 9.7 0.00 0.00 0.00 37 1035.0
20260503224115 20 180 3.2 6.4 0.00 0.00 0.00 35 1034.9
20260503223613 19 24 0.0 4.8 0.00 0.00 0.00 36 1034.8
20260503223108 19 19 0.0 8.0 0.00 0.00 0.00 35 1034.8
20260503222606 20 14 0.0 8.0 0.00 0.00 0.00 36 1034.8
20260503222104 20 90 0.0 4.8 0.00 0.00 0.00 37 1035.1
20260503221602 20 75 1.6 8.0 0.00 0.00 0.00 38 1035.0
20260503221059 18 165 6.4 9.7 0.00 0.00 0.00 38 1035.0
20260503220555 18 143 3.2 4.8 0.00 0.00 0.00 39 1034.9
20260503220052 19 8 9.7 9.7 0.00 0.00 0.00 37 1035.2
20260503215549 19 148 0.0 11.3 0.00 0.00 0.00 38 1035.2
20260503215046 19 18 4.8 9.7 0.00 0.00 0.00 36 1035.2
20260503214544 20 96 0.0 9.7 0.00 0.00 0.00 37 1035.4
20260503214040 19 12 3.2 11.3 0.00 0.00 0.00 37 1035.4
20260503213539 20 6 1.6 6.4 0.00 0.00 0.00 39 1035.4
20260503213035 20 26 3.2 8.0 0.00 0.00 0.00 36 1035.3
20260503212533 20 25 0.0 9.7 0.00 0.00 0.00 36 1035.4
20260503212030 20 20 0.0 4.8 0.00 0.00 0.00 34 1035.5
20260503211527 21 35 6.4 6.4 0.00 0.00 0.00 35 1035.4
20260503211022 19 141 4.8 8.0 0.00 0.00 0.00 38 1035.4
20260503210520 19 14 4.8 12.9 0.00 0.00 0.00 37 1035.4
20260503210015 20 23 4.8 4.8 0.00 0.00 0.00 36 1035.4
20260503205512 20 106 0.0 3.2 0.00 0.00 0.00 35 1035.5
20260503205009 19 163 4.8 8.0 0.00 0.00 0.00 38 1035.7
20260503204506 19 15 0.0 9.7 0.00 0.00 0.00 34 1035.7
20260503204003 19 0 6.4 16.1 0.00 0.00 0.00 36 1035.7
20260503203500 20 33 6.4 8.0 0.00 0.00 0.00 37 1035.9
20260503202956 19 40 3.2 8.0 0.00 0.00 0.00 40 1035.9
20260503202455 19 151 1.6 6.4 0.00 0.00 0.00 41 1036.1
20260503201953 19 180 1.6 3.2 0.00 0.00 0.00 38 1036.0
20260503201450 18 97 0.0 4.8 0.00 0.00 0.00 38 1036.0
20260503200947 19 135 4.8 6.4 0.00 0.00 0.00 38 1036.4
20260503200444 20 166 4.8 4.8 0.00 0.00 0.00 38 1036.3
20260503195940 18 138 4.8 6.4 0.00 0.00 0.00 40 1036.5
20260503195438 20 328 3.2 8.0 0.00 0.00 0.00 36 1036.3
20260503194934 20 90 0.0 6.4 0.00 0.00 0.00 35 1036.5
20260503194431 20 28 4.8 4.8 0.00 0.00 0.00 38 1036.5
20260503193926 17 8 3.2 6.4 0.00 0.00 0.00 38 1036.6
20260503193422 17 166 0.0 8.0 0.00 0.00 0.00 39 1036.6
20260503192917 17 184 3.2 9.7 0.00 0.00 0.00 39 1036.6
20260503192414 18 168 3.2 11.3 0.00 0.00 0.00 43 1037.0
20260503191910 18 72 6.4 6.4 0.00 0.00 0.00 39 1036.7
20260503191408 18 157 0.0 3.2 0.00 0.00 0.00 39 1036.9
20260503190904 17 144 3.2 9.7 0.00 0.00 0.00 40 1037.0
20260503190401 18 154 4.8 4.8 0.00 0.00 0.00 40 1037.3
20260503185858 17 161 6.4 9.7 0.00 0.00 0.00 40 1037.0
20260503185354 18 150 3.2 6.4 0.00 0.00 0.00 38 1037.0
20260503184854 18 68 3.2 8.0 0.00 0.00 0.00 39 1037.4
20260503184350 17 154 6.4 8.0 0.00 0.00 0.00 43 1037.4
20260503183846 18 135 3.2 3.2 0.00 0.00 0.00 40 1037.1
20260503183344 17 3 3.2 8.0 0.00 0.00 0.00 41 1037.4
20260503182841 17 152 3.2 4.8 0.00 0.00 0.00 45 1037.5
20260503182340 17 23 0.0 4.8 0.00 0.00 0.00 41 1037.4
20260503181837 16 165 3.2 3.2 0.00 0.00 0.00 43 1037.5
20260503181333 16 180 0.0 4.8 0.00 0.00 0.00 43 1037.5
20260503180830 16 180 3.2 8.0 0.00 0.00 0.00 48 1037.6
20260503180328 16 198 3.2 6.4 0.00 0.00 0.00 45 1037.6
20260503175824 16 219 0.0 8.0 0.00 0.00 0.00 45 1037.7
20260503175322 16 154 4.8 4.8 0.00 0.00 0.00 45 1037.7
20260503174817 15 8 0.0 4.8 0.00 0.00 0.00 45 1037.7
20260503174316 16 132 3.2 4.8 0.00 0.00 0.00 47 1038.1
20260503173811 15 37 3.2 3.2 0.00 0.00 0.00 45 1037.8
20260503173308 15 153 4.8 9.7 0.00 0.00 0.00 44 1038.1
20260503172805 14 194 3.2 4.8 0.00 0.00 0.00 44 1038.0
20260503172304 14 152 6.4 8.0 0.00 0.00 0.00 44 1038.4
20260503171758 14 192 1.6 6.4 0.00 0.00 0.00 46 1038.0
20260503171255 14 167 4.8 4.8 0.00 0.00 0.00 51 1038.1
20260503170752 14 127 6.4 8.0 0.00 0.00 0.00 51 1038.4
20260503170249 13 188 3.2 6.4 0.00 0.00 0.00 48 1038.2
20260503160211 12 172 0.0 3.2 0.00 0.00 0.00 49 1039.1
20260503150641 11 150 3.2 8.0 0.00 0.00 0.00 53 1039.4
20260503150137 11 173 0.0 4.8 0.00 0.00 0.00 53 1039.6
20260503131031 8 157 0.0 3.2 0.00 0.00 0.00 76 1039.1
20260503130528 8 160 0.0 1.6 0.00 0.00 0.00 74 1039.3
20260503110419 6 29 0.0 0.0 0.00 0.00 0.00 84 1037.9
20260503090304 7 15 0.0 0.0 0.00 0.00 0.00 82 1037.2
20260503081237 8 172 0.0 1.6 0.00 0.00 0.00 78 1036.5
20260503080732 8 151 0.0 1.6 0.00 0.00 0.00 78 1036.5
20260503080230 8 165 0.0 1.6 0.00 0.00 0.00 77 1036.6
20260503072706 9 140 0.0 0.0 0.00 0.00 0.00 73 1036.0
20260503072203 9 151 0.0 1.6 0.00 0.00 0.00 74 1036.3
20260503071700 8 82 0.0 0.0 0.00 0.00 0.00 74 1036.1
20260503071157 9 82 0.0 3.2 0.00 0.00 0.00 78 1036.0
20260503070653 9 45 3.2 3.2 0.00 0.00 0.00 77 1036.0
20260503070152 9 123 0.0 3.2 0.00 0.00 0.00 75 1035.9
20260503060116 10 99 0.0 0.0 0.00 0.00 0.00 67 1035.9
20260503055107 10 66 0.0 0.0 0.00 0.00 0.00 65 1035.9
20260503054603 10 106 0.0 0.0 0.00 0.00 0.00 64 1035.9
20260503054100 10 98 0.0 0.0 0.00 0.00 0.00 65 1035.8
20260503053558 10 69 0.0 1.6 0.00 0.00 0.00 65 1036.0
20260503053056 10 66 0.0 1.6 0.00 0.00 0.00 65 1035.9
20260503052552 10 29 0.0 3.2 0.00 0.00 0.00 65 1035.9
20260503052049 10 75 1.6 1.6 0.00 0.00 0.00 64 1036.0
20260503051544 10 107 0.0 0.0 0.00 0.00 0.00 64 1035.7
20260503051042 10 131 0.0 3.2 0.00 0.00 0.00 64 1035.9
20260503050538 10 82 0.0 0.0 0.00 0.00 0.00 66 1035.8
20260503050036 10 99 0.0 0.0 0.00 0.00 0.00 65 1035.7
20260503045532 10 54 0.0 1.6 0.00 0.00 0.00 67 1035.7
20260503045030 10 45 0.0 3.2 0.00 0.00 0.00 65 1035.9
20260503044526 10 74 0.0 1.6 0.00 0.00 0.00 66 1035.7
20260503044024 10 48 0.0 0.0 0.00 0.00 0.00 64 1035.8
20260503043520 10 345 0.0 0.0 0.00 0.00 0.00 64 1035.8
20260503043017 10 33 0.0 0.0 0.00 0.00 0.00 63 1035.8
20260503042514 10 33 0.0 0.0 0.00 0.00 0.00 64 1035.7
20260503042010 10 33 0.0 0.0 0.00 0.00 0.00 64 1035.6
20260503041507 10 33 0.0 0.0 0.00 0.00 0.00 63 1035.4
20260503041005 11 33 0.0 0.0 0.00 0.00 0.00 62 1035.6
20260503040502 11 33 0.0 0.0 0.00 0.00 0.00 62 1035.5
20260503035958 11 66 1.6 3.2 0.00 0.00 0.00 65 1035.6
20260503035455 11 120 0.0 0.0 0.00 0.00 0.00 61 1035.6
20260503034953 11 120 0.0 0.0 0.00 0.00 0.00 63 1035.7
20260503034450 11 120 0.0 0.0 0.00 0.00 0.00 62 1035.5
20260503033947 11 120 0.0 0.0 0.00 0.00 0.00 63 1035.5
20260503033444 11 98 0.0 3.2 0.00 0.00 0.00 61 1035.4
20260503032943 11 132 3.2 3.2 0.00 0.00 0.00 61 1035.4
20260503032441 11 146 4.8 4.8 0.00 0.00 0.00 61 1035.4
20260503031938 11 114 0.0 3.2 0.00 0.00 0.00 60 1035.5
20260503031436 11 16 0.0 0.0 0.00 0.00 0.00 60 1035.5
20260503030932 11 20 1.6 1.6 0.00 0.00 0.00 60 1035.5
20260503030429 11 8 0.0 0.0 0.00 0.00 0.00 61 1035.4
20260503025926 11 8 0.0 0.0 0.00 0.00 0.00 61 1035.2
20260503025422 11 15 0.0 3.2 0.00 0.00 0.00 61 1035.2
20260503024920 11 8 0.0 0.0 0.00 0.00 0.00 60 1035.2
20260503024416 11 106 0.0 0.0 0.00 0.00 0.00 61 1035.3
20260503023914 11 106 0.0 0.0 0.00 0.00 0.00 61 1035.1
20260503023411 11 90 0.0 0.0 0.00 0.00 0.00 60 1035.1
20260503022908 11 90 0.0 0.0 0.00 0.00 0.00 61 1035.2
20260503022402 11 66 0.0 0.0 0.00 0.00 0.00 60 1035.0
20260503021858 11 66 0.0 0.0 0.00 0.00 0.00 59 1035.1
20260503021354 11 66 0.0 0.0 0.00 0.00 0.00 59 1034.8
20260503020851 11 66 0.0 0.0 0.00 0.00 0.00 59 1034.7
20260503020350 11 66 0.0 0.0 0.00 0.00 0.00 59 1034.7
20260503015846 11 66 0.0 0.0 0.00 0.00 0.00 58 1034.6
20260503015343 11 140 0.0 0.0 0.00 0.00 0.00 58 1034.7
20260503014838 11 140 0.0 3.2 0.00 0.00 0.00 58 1034.6
20260503014336 11 23 0.0 0.0 0.00 0.00 0.00 57 1034.4
20260503013833 11 23 0.0 0.0 0.00 0.00 0.00 57 1034.4
20260503013331 11 23 0.0 0.0 0.00 0.00 0.00 57 1034.2
20260503012828 11 23 0.0 1.6 0.00 0.00 0.00 57 1034.0
20260503012326 12 154 0.0 0.0 0.00 0.00 0.00 57 1034.2
20260503011822 12 154 0.0 0.0 0.00 0.00 0.00 56 1033.8
20260503011319 12 154 0.0 0.0 0.00 0.00 0.00 56 1033.8
20260503010815 12 154 0.0 0.0 0.00 0.00 0.00 56 1033.9
20260503010313 12 154 0.0 0.0 0.00 0.00 0.00 55 1033.8
20260503005809 12 154 0.0 0.0 0.00 0.00 0.00 55 1033.8
20260503005307 12 154 0.0 0.0 0.00 0.00 0.00 55 1033.6
20260503004803 12 154 0.0 1.6 0.00 0.00 0.00 54 1033.6
20260503004301 12 165 0.0 3.2 0.00 0.00 0.00 53 1033.5
20260503003758 12 172 0.0 4.8 0.00 0.00 0.00 53 1033.3
20260503003255 12 165 0.0 3.2 0.00 0.00 0.00 53 1033.3
20260503002752 13 159 3.2 4.8 0.00 0.00 0.00 52 1033.3
20260503002248 13 149 4.8 4.8 0.00 0.00 0.00 51 1033.2
20260503001745 13 157 1.6 4.8 0.00 0.00 0.00 50 1033.1
20260503001241 13 151 1.6 4.8 0.00 0.00 0.00 49 1033.1
20260503000739 13 168 0.0 4.8 0.00 0.00 0.00 48 1032.9